Temp
91 91 90 89 90 91 90 91 92 89 88 89 89 88 86 84 80 78 79 81 85 89 93 90 90 92 92 91 95 93 93 88 88 94 92 92 91 80 75 75 75 75 75 75 75 76 76 76 77 78 78 78 78 78 79 80 79 79 78 77 77 76 74 73 72 73 73 73 72 73 73 74 75 76
89 90 90 91 91 91 91 92 92 89 87 89 89 88 88 85 82 81 78 80 86 87 92 94 91 90 91 95 94 95 93 83 89 93 92 92 92 77 75 75 75 75 74 74 74 75 75 75 75 75 76 76 76 77 78 80 79 79 78 77 77 76 73 72 72 72 73 72 72 73 74 75 76 76
89 87 88 89 89 90 91 91 93 90 89 89 89 88 87 86 85 83 81 78 84 89 87 91 95 93 91 95 95 96 94 89 89 92 91 91 82 78 82 75 75 74 73 73 73 73 74 73 73 73 74 75 75 76 78 79 79 79 78 77 76 75 73 72 71 72 72 72 72 73 74 75 75 75
89 87 87 87 88 89 89 90 91 90 89 89 89 89 87 86 86 84 82 80 81 88 90 90 93 94 92 92 91 92 95 93 83 91 91 89 83 91 93 79 75 75 73 73 73 72 72 71 71 73 73 74 74 75 77 78 79 78 77 77 75 74 72 71 72 72 72 72 73 73 74 75 75 75
88 87 86 87 88 88 88 89 91 91 91 89 89 89 88 87 87 85 82 80 81 86 90 90 91 93 93 93 91 90 92 93 92 89 92 92 92 93 93 92 77 73 73 72 72 72 71 70 71 71 72 73 73 73 73 75 76 77 77 77 73 71 71 71 72 72 72 72 73 73 74 74 75 75
88 87 85 86 89 88 88 89 90 91 91 92 91 90 89 88 87 86 84 83 82 81 87 88 91 91 93 90 91 89 89 90 90 91 92 94 93 92 92 92 91 73 74 73 72 72 71 70 70 71 71 71 71 71 70 72 73 76 76 74 70 70 70 71 72 71 71 72 72 72 73 74 74 74
88 87 86 88 89 91 89 89 90 91 90 91 89 90 90 88 88 87 85 83 82 82 84 87 89 89 89 89 89 90 91 89 89 88 91 93 94 94 93 93 95 75 73 73 73 72 71 70 70 70 69 70 69 69 68 67 69 74 73 69 68 70 70 69 70 70 71 71 72 72 72 73 73 74
88 87 86 88 89 89 87 87 88 89 89 89 88 88 88 87 87 87 86 85 83 83 82 85 86 89 87 89 90 91 90 91 89 90 90 92 91 92 95 93 94 84 74 76 73 73 72 70 70 69 69 68 67 67 66 66 66 68 69 68 68 68 67 66 67 69 68 69 69 71 71 72 72 73
86 86 87 88 88 88 86 88 88 90 88 89 89 88 88 87 88 87 87 85 85 83 82 84 86 87 87 88 88 89 88 89 89 88 88 90 89 89 94 96 94 80 75 77 74 73 73 72 70 69 68 68 67 67 67 65 64 65 66 65 65 66 66 65 65 66 67 66 66 67 69 71 71 70
88 88 88 88 88 88 87 88 88 87 87 88 88 88 87 87 87 85 85 85 84 84 84 84 85 86 87 86 86 87 87 87 87 87 88 89 87 87 89 92 94 95 94 94 92 79 78 72 68 70 70 68 68 67 66 66 64 62 62 62 64 66 64 63 64 64 64 64 64 65 67 69 69 69
90 90 90 88 87 87 87 88 88 88 88 88 87 86 86 87 86 86 86 85 84 84 84 86 85 85 87 85 84 87 87 86 86 84 85 85 87 86 86 86 91 93 94 84 76 80 80 77 81 69 69 69 69 68 67 67 65 64 61 59 61 62 62 63 62 62 63 64 63 63 63 64 67 68
90 89 90 91 90 89 88 87 88 88 87 87 86 88 87 86 85 86 87 86 85 85 86 85 86 86 84 84 86 87 85 85 84 86 85 82 83 84 85 86 86 88 89 93 93 81 80 79 77 74 74 72 70 69 72 69 69 65 63 63 64 63 61 61 61 61 61 61 61 62 62 62 63 66
89 88 90 91 92 90 86 84 84 85 84 87 85 85 86 85 84 84 85 84 84 84 85 84 85 84 83 84 84 85 84 83 83 84 85 83 85 85 85 85 87 87 88 90 91 90 91 90 90 89 88 86 81 78 74 75 71 66 64 64 65 63 61 61 60 61 60 60 60 60 61 61 60 61
90 90 89 89 86 83 83 83 82 81 80 80 85 86 86 84 84 83 83 83 81 81 83 84 85 84 84 86 85 85 86 86 85 85 84 82 84 84 84 83 85 87 89 88 84 88 91 90 88 88 86 87 84 83 80 75 73 67 64 65 65 64 63 61 60 59 59 58 59 59 59 59 60 59
88 90 90 91 89 85 84 85 81 81 81 82 81 80 81 82 84 84 83 84 85 83 84 85 84 85 83 85 87 86 88 88 86 85 84 84 82 81 80 79 82 86 85 83 83 83 87 87 85 85 86 85 83 82 76 66 66 65 65 65 65 64 64 64 62 61 60 60 59 58 57 58 59 59
88 89 90 91 92 91 90 89 88 85 82 81 81 81 81 80 79 80 82 82 82 83 83 83 84 85 84 84 85 87 87 85 85 84 84 82 81 80 80 80 79 82 85 83 82 83 86 87 85 82 84 84 83 77 68 66 64 64 64 64 64 64 63 64 64 62 61 61 61 61 60 59 59 58
86 86 87 88 90 89 86 85 84 77 78 80 80 80 80 80 79 74 73 76 83 85 83 83 84 85 84 83 84 86 85 85 83 83 83 82 82 81 80 81 82 82 84 83 82 82 84 86 83 81 83 84 83 81 70 65 65 64 64 64 64 64 64 63 63 63 62 61 59 57 58 60 60 59
86 86 85 85 86 88 87 83 79 77 76 78 81 82 84 85 85 81 76 75 75 79 84 83 83 85 85 83 84 85 84 82 82 83 83 83 81 80 80 82 81 82 88 84 83 80 84 86 86 81 82 84 82 79 68 65 65 64 63 63 63 62 63 63 62 62 61 61 60 58 56 56 56 56
85 85 85 84 84 84 83 80 77 77 76 76 78 79 82 85 86 87 88 87 87 85 86 87 86 85 86 85 85 85 85 85 84 84 82 81 81 82 83 82 83 85 85 85 84 78 82 85 83 82 83 86 82 81 70 65 66 64 64 63 63 62 62 63 62 61 61 61 60 59 57 57 57 57
83 83 83 82 82 83 82 78 73 76 77 77 76 76 79 81 84 86 81 70 75 82 85 86 86 86 81 76 82 82 86 85 83 83 85 83 80 80 80 80 84 85 86 85 83 81 81 84 85 82 85 84 82 82 81 67 66 66 64 64 63 61 61 62 62 62 61 61 60 59 58 57 57 57
82 82 82 82 81 81 81 77 66 68 74 77 77 76 78 80 82 82 80 68 68 66 64 64 66 64 65 66 64 63 62 75 81 85 83 81 85 81 78 79 82 82 84 85 84 83 80 82 82 82 83 82 81 82 81 81 68 65 65 64 63 61 60 61 61 61 61 61 60 59 59 59 60 60
79 80 78 78 79 79 79 69 65 63 71 76 77 77 77 78 79 80 80 83 81 67 66 67 65 65 65 65 65 67 65 63 72 84 81 86 86 83 82 79 81 80 82 81 84 79 80 82 82 81 81 80 82 82 81 80 77 68 68 64 63 61 62 60 60 61 61 60 60 59 59 56 62 78
78 78 77 71 68 69 64 55 57 59 66 71 74 76 75 72 73 76 77 75 75 77 80 80 80 78 77 79 81 80 68 68 76 84 86 88 84 82 83 82 78 77 79 81 82 77 78 79 82 80 79 77 78 81 79 79 79 80 79 79 77 63 64 61 60 59 60 60 59 59 58 57 63 81
76 76 76 72 61 57 56 53 53 55 58 66 68 71 71 71 71 69 70 71 73 74 74 77 77 76 77 79 81 83 82 82 82 84 86 87 86 83 82 82 81 79 78 80 82 78 79 81 80 81 80 76 74 77 78 77 78 78 79 78 78 71 70 70 67 60 58 59 58 58 57 57 60 79
74 74 73 74 64 56 55 54 52 52 54 59 64 67 68 68 68 68 67 69 72 73 73 74 76 78 79 80 82 84 84 85 86 86 86 86 87 85 84 82 80 79 80 79 73 80 76 80 78 79 77 78 79 77 75 75 77 77 77 77 76 77 78 78 75 79 67 63 60 59 57 57 57 66
72 70 70 71 64 54 55 54 52 51 53 57 62 60 54 56 61 68 68 67 67 68 69 71 74 77 79 81 80 81 83 84 84 86 86 86 86 86 85 82 79 78 77 77 70 79 77 76 77 76 76 75 77 77 75 74 75 76 77 77 76 76 77 77 78 76 76 77 76 69 67 58 60 58
69 69 68 69 64 55 51 50 51 52 52 60 60 54 55 57 60 67 67 69 70 70 70 69 71 72 74 76 74 75 75 76 79 84 84 83 82 80 80 80 82 79 79 78 78 78 78 75 77 76 74 75 74 75 75 75 75 76 76 77 77 76 77 77 76 76 76 76 76 65 63 62 62 60
68 67 68 67 56 50 47 46 49 52 57 60 54 53 55 58 63 66 69 68 70 70 71 71 70 72 73 73 72 72 73 74 75 78 81 80 81 79 79 78 77 78 78 79 78 78 77 76 76 75 75 74 74 73 73 75 75 75 74 76 77 77 77 77 76 74 75 75 76 75 75 75 76 76
68 61 54 52 52 53 51 50 51 53 54 51 52 52 55 64 63 61 62 66 70 67 70 72 73 72 74 75 73 73 73 73 75 76 78 78 77 77 75 74 75 76 79 79 77 76 76 76 75 76 75 75 74 74 73 73 73 74 72 73 74 75 75 75 75 74 73 74 74 74 73 73 74 74
59 56 54 52 53 56 59 65 68 68 68 60 59 57 60 61 59 59 59 64 69 70 71 72 70 69 69 69 70 70 70 69 71 73 74 75 72 74 73 72 72 75 78 77 77 76 75 74 73 73 74 73 74 73 73 73 72 73 73 73 72 76 75 74 74 73 72 71 72 73 73 74 73 72
69 68 69 68 60 60 59 62 65 66 66 68 67 64 65 67 66 66 68 72 73 72 69 68 69 70 71 71 70 69 68 67 68 72 73 74 74 75 75 72 71 68 72 74 74 73 73 73 73 73 71 71 73 71 72 73 71 72 72 72 72 69 72 73 73 72 71 71 72 73 72 73 74 73
68 70 70 68 74 74 75 76 76 75 74 73 73 73 73 71 71 71 71 71 71 71 71 70 71 71 71 70 70 70 68 66 66 68 68 69 69 71 70 68 67 68 68 70 70 70 71 71 71 72 71 70 68 70 71 71 71 71 71 71 71 73 73 72 72 71 70 69 70 70 70 72 72 73
67 72 74 74 74 76 75 74 75 74 73 72 72 73 73 73 73 72 72 70 68 69 70 69 69 68 69 69 70 69 66 64 64 66 66 66 66 67 67 65 64 65 66 65 66 68 69 70 71 71 71 71 71 70 69 69 70 70 69 69 69 69 71 71 70 69 68 67 67 69 68 70 72 72
68 72 73 74 74 73 73 72 72 72 72 71 71 70 66 70 70 70 70 71 70 69 68 68 68 66 67 67 67 66 64 63 64 63 64 64 66 65 65 64 63 64 64 65 64 64 66 67 68 70 70 71 72 70 70 69 69 69 68 68 68 67 69 69 69 68 67 66 65 65 67 68 70 72
71 72 72 73 72 72 72 71 70 70 69 69 69 69 68 68 67 67 67 67 68 67 67 65 64 64 63 62 63 63 63 62 63 63 64 65 65 65 65 64 63 62 63 63 63 63 64 64 64 65 65 66 67 68 65 67 67 67 67 68 68 67 66 68 68 67 66 66 67 63 65 67 68 70
70 72 71 71 71 71 71 70 70 71 71 69 69 69 67 66 66 64 63 62 63 63 62 61 61 61 61 60 60 60 60 60 60 60 60 60 61 62 64 62 61 61 61 61 61 61 61 62 62 61 61 63 64 65 64 62 64 65 64 64 66 65 66 66 66 66 66 66 65 64 63 64 66 68
69 70 70 70 70 70 69 69 69 68 69 68 67 67 66 64 64 64 63 63 63 62 61 62 61 62 62 61 60 59 59 58 57 58 58 58 59 60 60 60 60 60 61 61 61 61 60 60 61 59 59 59 60 59 63 64 60 60 64 62 63 65 64 63 63 64 66 66 66 66 65 64 65 68
68 69 69 68 68 69 69 69 68 67 67 67 66 66 65 65 64 63 65 64 64 64 64 64 63 63 62 62 61 60 60 59 59 58 58 59 59 59 60 60 60 60 60 60 60 60 61 60 59 59 57 57 58 59 60 62 61 61 58 61 62 63 64 63 63 63 63 66 65 66 66 65 66 67
69 68 67 67 67 68 67 67 67 66 66 67 66 66 65 65 65 64 63 63 62 62 62 62 61 61 61 61 60 59 58 58 58 59 59 60 59 58 59 60 60 61 60 60 62 62 60 59 58 57 57 55 54 55 56 55 56 63 61 54 61 61 64 63 62 63 64 64 65 66 66 67 66 61
67 67 67 67 67 67 67 67 66 66 66 65 65 65 65 64 64 64 63 62 60 59 60 58 57 58 59 59 58 58 57 56 57 57 57 57 57 56 57 58 57 55 54 55 56 57 56 56 55 54 55 55 58 60 60 60 61 62 65 59 51 58 61 62 61 61 62 63 63 63 64 66 65 67
67 66 67 67 67 67 66 66 65 65 64 64 64 62 63 63 63 62 61 61 61 60 60 59 58 58 57 57 57 58 57 57 56 56 57 57 56 56 54 53 54 55 54 54 56 56 56 57 57 55 56 58 59 61 59 58 58 61 61 63 53 53 54 56 61 61 60 61 61 61 61 61 61 61
66 66 66 67 66 66 67 65 66 66 65 65 65 64 62 62 60 58 60 58 59 59 59 59 58 57 57 57 57 57 56 55 54 53 53 54 54 55 54 55 54 55 54 53 54 55 57 58 59 59 60 60 60 57 56 57 58 59 61 64 67 58 55 54 55 55 61 62 61 60 61 62 62 60
66 66 65 65 66 66 66 65 65 65 65 64 63 63 63 62 62 61 61 59 59 59 59 58 58 58 58 58 57 56 55 54 54 53 53 53 52 52 52 53 53 54 54 54 55 56 58 59 60 60 60 61 61 60 57 59 59 59 59 61 62 64 66 57 54 54 56 56 56 57 59 58 57 56
66 65 65 65 65 64 64 65 64 64 64 64 63 63 63 62 60 59 60 59 59 58 58 58 58 57 57 57 57 56 56 56 55 53 53 52 52 53 53 53 54 54 55 55 56 57 59 59 60 59 58 58 59 57 57 57 58 59 59 59 60 60 62 65 67 59 56 54 54 54 52 53 55 55
65 65 64 64 64 64 64 64 63 63 63 63 63 62 60 60 59 59 58 58 58 58 58 58 57 57 56 57 56 55 55 53 54 54 53 53 53 53 53 53 53 53 53 54 53 54 56 56 59 60 58 59 59 57 57 57 57 58 58 58 58 59 61 61 60 61 63 64 56 54 55 54 56 55
MSLP
1020.84 1020.76 1020.84 1020.96 1020.80 1020.60 1020.40 1020.40 1020.28 1020.44 1020.60 1020.60 1020.64 1020.72 1021.32 1021.76 1022.76 1023.04 1022.76 1022.08 1021.60 1020.28 1019.48 1020.24 1019.36 1018.72 1018.56 1018.52 1018.04 1018.08 1017.96 1017.96 1017.80 1017.48 1017.40 1017.32 1017.20 1017.36 1017.36 1017.20 1017.04 1016.84 1016.64 1016.48 1016.28 1016.08 1015.88 1015.64 1015.40 1015.20 1015.00 1014.88 1014.76 1014.64 1014.60 1014.64 1014.76 1014.88 1015.00 1015.16 1015.32 1015.44 1015.64 1015.76 1015.80 1015.84 1015.92 1015.92 1015.96 1016.04 1016.08 1016.16 1016.24 1016.36
1020.84 1020.80 1020.72 1020.64 1020.68 1020.32 1020.32 1020.24 1020.12 1020.32 1020.52 1020.52 1020.56 1020.60 1020.68 1020.96 1022.00 1022.20 1022.92 1022.36 1020.92 1020.68 1019.48 1019.20 1019.52 1018.92 1018.76 1018.16 1018.12 1017.92 1018.00 1018.04 1017.80 1017.56 1017.48 1017.32 1017.28 1017.40 1017.36 1017.24 1017.08 1016.92 1016.76 1016.56 1016.40 1016.16 1015.92 1015.68 1015.48 1015.32 1015.16 1015.00 1014.84 1014.68 1014.60 1014.60 1014.72 1014.84 1015.00 1015.16 1015.28 1015.40 1015.60 1015.76 1015.80 1015.84 1015.92 1016.00 1016.08 1016.16 1016.20 1016.24 1016.28 1016.40
1020.76 1020.96 1021.00 1020.72 1020.68 1020.40 1020.32 1020.20 1020.00 1020.12 1020.28 1020.40 1020.36 1020.44 1020.48 1020.76 1021.00 1021.48 1021.84 1022.68 1020.92 1019.96 1020.60 1019.48 1018.68 1018.84 1018.64 1018.24 1018.20 1017.96 1017.84 1017.92 1017.88 1017.60 1017.48 1017.36 1017.32 1017.20 1017.12 1017.20 1017.08 1017.00 1016.84 1016.68 1016.52 1016.32 1016.08 1015.84 1015.64 1015.44 1015.28 1015.08 1014.92 1014.72 1014.64 1014.60 1014.68 1014.88 1015.04 1015.16 1015.28 1015.40 1015.56 1015.72 1015.84 1015.88 1015.92 1016.00 1016.08 1016.20 1016.28 1016.36 1016.44 1016.52
1020.68 1020.88 1021.00 1020.84 1020.72 1020.44 1020.36 1020.28 1020.16 1020.20 1020.08 1020.08 1020.20 1020.24 1020.40 1020.48 1020.52 1020.80 1021.44 1022.00 1021.80 1020.00 1019.80 1019.48 1018.92 1018.44 1018.56 1018.32 1018.56 1018.40 1017.92 1017.64 1017.84 1017.64 1017.48 1017.32 1017.12 1016.88 1016.72 1017.04 1017.12 1017.04 1016.92 1016.80 1016.64 1016.44 1016.24 1016.04 1015.76 1015.56 1015.36 1015.20 1015.00 1014.80 1014.64 1014.60 1014.68 1014.88 1015.04 1015.16 1015.32 1015.44 1015.56 1015.76 1015.88 1015.96 1016.00 1016.04 1016.12 1016.24 1016.32 1016.40 1016.52 1016.64
1020.68 1020.84 1020.96 1020.80 1020.56 1020.32 1020.52 1020.32 1020.12 1020.00 1019.96 1020.04 1020.00 1020.00 1020.16 1020.32 1020.20 1020.60 1021.12 1021.68 1021.44 1020.28 1019.24 1019.36 1019.12 1018.52 1018.44 1018.60 1018.40 1018.60 1018.24 1017.96 1017.80 1017.48 1017.32 1017.16 1017.08 1016.88 1016.76 1016.68 1017.00 1017.08 1016.96 1016.88 1016.72 1016.60 1016.44 1016.20 1015.96 1015.72 1015.48 1015.32 1015.16 1014.96 1014.80 1014.72 1014.76 1014.84 1015.00 1015.12 1015.32 1015.48 1015.60 1015.72 1015.84 1015.96 1016.08 1016.12 1016.20 1016.32 1016.40 1016.48 1016.56 1016.72
1020.72 1020.76 1020.96 1020.80 1020.48 1020.24 1020.44 1020.28 1020.16 1019.92 1019.88 1019.84 1019.92 1019.88 1020.00 1020.12 1020.12 1019.96 1020.72 1021.00 1021.20 1021.24 1019.80 1019.60 1018.76 1018.76 1018.32 1018.96 1018.24 1018.72 1018.68 1018.36 1018.00 1017.80 1017.52 1017.08 1016.92 1016.96 1016.72 1016.60 1016.84 1017.12 1017.00 1016.92 1016.80 1016.68 1016.56 1016.36 1016.16 1015.88 1015.64 1015.40 1015.24 1015.12 1014.96 1014.80 1014.80 1014.84 1014.92 1015.12 1015.28 1015.44 1015.60 1015.68 1015.80 1015.92 1016.04 1016.16 1016.28 1016.40 1016.48 1016.60 1016.68 1016.76
1020.52 1020.72 1020.80 1020.64 1020.32 1020.08 1020.28 1020.24 1020.08 1019.80 1019.88 1019.68 1019.88 1019.88 1019.68 1019.92 1019.84 1019.80 1020.00 1020.60 1021.08 1020.88 1020.40 1019.48 1019.32 1019.00 1018.84 1018.96 1018.80 1018.40 1018.20 1018.08 1017.96 1018.04 1017.68 1017.32 1017.00 1016.80 1016.68 1016.60 1016.56 1017.04 1017.00 1016.96 1016.84 1016.76 1016.68 1016.56 1016.36 1016.12 1015.88 1015.60 1015.40 1015.20 1015.08 1014.96 1014.84 1014.80 1014.96 1015.12 1015.32 1015.44 1015.60 1015.68 1015.76 1015.88 1016.04 1016.12 1016.24 1016.32 1016.48 1016.60 1016.72 1016.80
1020.48 1020.56 1020.68 1020.52 1020.24 1020.16 1020.44 1020.36 1020.12 1019.92 1019.80 1019.80 1019.80 1019.84 1019.72 1019.76 1019.80 1019.64 1019.68 1019.88 1020.36 1020.40 1020.68 1019.84 1019.60 1019.08 1019.24 1018.84 1018.36 1018.20 1018.04 1018.04 1018.08 1017.84 1017.56 1017.20 1017.28 1017.00 1016.60 1016.60 1016.64 1016.88 1016.96 1016.88 1016.88 1016.84 1016.80 1016.72 1016.56 1016.40 1016.16 1015.92 1015.68 1015.44 1015.28 1015.16 1015.04 1014.96 1015.00 1015.16 1015.36 1015.52 1015.64 1015.72 1015.80 1015.88 1016.00 1016.16 1016.20 1016.28 1016.36 1016.44 1016.56 1016.68
1020.36 1020.40 1020.44 1020.28 1020.12 1020.16 1020.40 1020.20 1020.08 1019.76 1019.88 1019.72 1019.68 1019.72 1019.60 1019.68 1019.52 1019.48 1019.52 1019.64 1019.68 1020.16 1020.40 1019.92 1019.24 1019.04 1019.00 1018.68 1018.60 1018.32 1018.60 1018.24 1018.00 1017.84 1017.84 1017.64 1017.52 1017.28 1016.72 1016.44 1016.52 1016.72 1016.72 1016.76 1016.80 1016.80 1016.84 1016.84 1016.72 1016.60 1016.40 1016.20 1016.00 1015.76 1015.56 1015.44 1015.36 1015.28 1015.28 1015.36 1015.48 1015.60 1015.72 1015.84 1015.96 1016.04 1016.04 1016.08 1016.20 1016.28 1016.28 1016.32 1016.40 1016.44
1019.92 1020.00 1020.04 1019.96 1019.88 1020.00 1020.24 1020.08 1019.80 1019.72 1019.80 1019.64 1019.64 1019.64 1019.56 1019.44 1019.44 1019.60 1019.52 1019.48 1019.60 1019.72 1019.76 1019.76 1019.68 1019.08 1019.20 1019.08 1018.88 1018.52 1018.48 1018.60 1018.56 1018.28 1017.88 1017.56 1017.60 1017.60 1017.40 1016.92 1016.60 1016.40 1016.52 1016.52 1016.44 1016.52 1016.60 1016.84 1016.84 1016.76 1016.60 1016.44 1016.28 1016.12 1015.92 1015.80 1015.72 1015.68 1015.64 1015.64 1015.68 1015.76 1015.84 1015.92 1015.96 1016.04 1016.16 1016.16 1016.12 1016.20 1016.28 1016.36 1016.40 1016.44
1019.48 1019.52 1019.56 1019.60 1019.68 1019.80 1019.76 1019.76 1019.68 1019.56 1019.52 1019.52 1019.52 1019.44 1019.48 1019.32 1019.40 1019.44 1019.40 1019.44 1019.56 1019.56 1019.60 1019.36 1019.20 1019.28 1018.84 1019.04 1019.36 1018.52 1018.28 1018.40 1018.52 1018.84 1018.72 1018.52 1017.84 1017.76 1017.76 1017.76 1017.00 1016.56 1016.56 1016.64 1016.84 1016.80 1016.80 1016.80 1016.72 1016.84 1016.72 1016.60 1016.48 1016.36 1016.28 1016.12 1016.04 1015.96 1015.96 1015.92 1015.92 1015.92 1016.00 1016.08 1016.12 1016.12 1016.12 1016.16 1016.28 1016.28 1016.28 1016.24 1016.32 1016.44
1019.16 1019.20 1019.16 1019.08 1019.12 1019.24 1019.28 1019.36 1019.32 1019.28 1019.48 1019.28 1019.40 1019.08 1019.12 1019.20 1019.40 1019.40 1019.20 1019.28 1019.36 1019.44 1019.32 1019.32 1019.20 1019.08 1019.28 1019.04 1018.60 1018.32 1018.48 1018.72 1018.72 1018.44 1018.68 1019.12 1018.72 1018.36 1017.92 1017.68 1017.72 1017.28 1016.92 1016.72 1016.48 1016.48 1016.48 1016.56 1016.60 1016.64 1016.64 1016.68 1016.64 1016.52 1016.36 1016.52 1016.40 1016.32 1016.24 1016.16 1016.12 1016.16 1016.16 1016.16 1016.16 1016.20 1016.20 1016.24 1016.32 1016.32 1016.24 1016.28 1016.36 1016.48
1018.88 1018.92 1018.84 1018.80 1018.72 1018.72 1018.92 1019.00 1019.08 1019.04 1019.08 1019.24 1019.36 1019.16 1019.04 1019.20 1019.32 1019.36 1019.24 1019.28 1019.32 1019.36 1019.28 1019.24 1019.00 1019.24 1019.32 1019.12 1019.16 1019.00 1019.00 1019.08 1019.08 1018.52 1018.28 1018.64 1018.28 1018.12 1018.12 1017.84 1017.28 1017.24 1017.20 1016.96 1016.80 1016.84 1016.52 1016.64 1016.64 1016.64 1016.80 1016.80 1016.60 1016.68 1016.68 1016.64 1016.72 1016.76 1016.60 1016.44 1016.36 1016.36 1016.36 1016.32 1016.32 1016.28 1016.32 1016.40 1016.44 1016.48 1016.32 1016.40 1016.44 1016.44
1018.64 1018.60 1018.60 1018.48 1018.56 1018.68 1018.76 1018.80 1018.84 1018.88 1018.88 1018.96 1018.84 1018.80 1018.88 1019.08 1019.20 1019.28 1019.32 1019.40 1019.52 1019.68 1019.44 1019.24 1019.08 1019.28 1019.28 1018.84 1018.72 1018.84 1018.52 1018.28 1018.24 1018.32 1018.44 1018.76 1018.40 1018.24 1018.24 1018.16 1017.72 1017.20 1017.08 1017.32 1017.72 1017.16 1016.48 1016.64 1016.88 1016.84 1017.16 1016.92 1016.88 1017.04 1017.08 1017.40 1017.28 1017.12 1016.88 1016.76 1016.60 1016.52 1016.44 1016.36 1016.36 1016.36 1016.40 1016.44 1016.48 1016.56 1016.24 1016.24 1016.28 1016.28
1018.64 1018.40 1018.28 1018.20 1018.20 1018.36 1018.48 1018.48 1018.48 1018.52 1018.56 1018.56 1018.56 1018.60 1018.64 1018.68 1018.88 1019.08 1019.12 1018.96 1018.80 1019.04 1019.08 1018.80 1018.84 1018.92 1019.04 1018.68 1018.24 1018.40 1018.04 1017.92 1018.20 1018.36 1018.36 1018.44 1018.56 1018.92 1019.08 1019.28 1018.36 1017.36 1017.44 1017.76 1017.84 1017.80 1016.92 1016.76 1017.40 1017.28 1017.36 1017.40 1017.44 1017.40 1017.76 1017.80 1017.44 1017.24 1017.08 1016.96 1016.84 1016.72 1016.60 1016.48 1016.40 1016.32 1016.28 1016.28 1016.32 1016.28 1016.12 1016.24 1016.36 1016.32
1018.40 1018.36 1018.24 1018.00 1017.84 1017.84 1017.92 1017.96 1018.04 1018.24 1018.44 1018.52 1018.48 1018.48 1018.48 1018.48 1018.44 1018.40 1018.72 1019.00 1019.04 1018.72 1018.84 1018.88 1018.60 1018.56 1018.68 1018.52 1018.28 1018.12 1017.96 1018.20 1018.12 1018.16 1018.20 1018.44 1018.64 1018.80 1018.92 1018.88 1019.12 1018.04 1017.36 1017.88 1018.04 1018.04 1017.16 1016.88 1017.28 1017.64 1017.56 1017.52 1017.68 1018.04 1018.08 1017.84 1017.64 1017.48 1017.32 1017.16 1017.04 1016.92 1016.80 1016.68 1016.56 1016.48 1016.36 1016.28 1016.16 1016.08 1016.04 1016.08 1016.40 1016.40
1018.36 1018.36 1018.36 1018.20 1017.92 1017.76 1017.84 1017.92 1018.44 1019.40 1019.52 1019.04 1018.76 1018.52 1018.40 1018.28 1018.20 1018.16 1018.12 1018.04 1018.20 1018.12 1018.44 1018.56 1018.36 1018.20 1018.12 1018.40 1018.16 1017.76 1017.88 1017.80 1018.36 1018.24 1018.32 1018.28 1018.36 1018.44 1018.72 1018.56 1018.44 1018.24 1017.52 1017.80 1018.08 1018.24 1017.60 1017.12 1017.56 1018.00 1017.76 1017.56 1017.64 1017.84 1018.00 1017.96 1017.80 1017.68 1017.56 1017.40 1017.28 1017.12 1016.96 1016.84 1016.72 1016.56 1016.48 1016.40 1016.28 1016.20 1016.12 1016.12 1016.20 1016.32
1018.24 1018.28 1018.36 1018.40 1018.20 1017.80 1017.80 1017.96 1018.08 1018.12 1018.36 1018.52 1018.48 1018.36 1018.12 1017.88 1017.60 1017.64 1017.72 1017.76 1017.80 1017.84 1017.92 1018.04 1018.16 1017.52 1017.44 1017.96 1017.68 1017.40 1017.44 1018.04 1018.28 1018.24 1018.28 1018.12 1018.32 1018.48 1018.48 1018.00 1018.28 1017.96 1017.36 1017.92 1018.04 1018.44 1017.84 1017.20 1017.44 1018.08 1017.88 1017.64 1017.88 1018.08 1018.28 1018.12 1018.00 1017.84 1017.76 1017.64 1017.48 1017.36 1017.20 1017.08 1016.92 1016.76 1016.64 1016.56 1016.48 1016.40 1016.32 1016.24 1016.24 1016.28
1018.20 1018.16 1018.12 1018.16 1018.16 1018.00 1018.00 1018.04 1018.00 1018.12 1018.24 1018.40 1018.56 1018.48 1018.20 1017.76 1017.40 1017.20 1017.12 1017.12 1017.12 1017.24 1017.16 1017.20 1017.24 1017.20 1016.96 1017.12 1017.16 1017.20 1017.24 1017.44 1017.56 1017.64 1017.92 1018.00 1018.04 1017.96 1017.76 1017.88 1017.84 1017.68 1017.48 1017.52 1017.84 1019.04 1018.08 1017.28 1017.76 1018.04 1017.84 1017.64 1017.84 1018.00 1018.28 1018.32 1018.20 1018.08 1018.00 1017.88 1017.80 1017.64 1017.48 1017.32 1017.16 1017.04 1016.88 1016.76 1016.72 1016.68 1016.64 1016.56 1016.52 1016.52
1018.16 1018.08 1018.08 1018.16 1018.08 1018.00 1017.92 1017.88 1018.00 1017.96 1017.96 1018.16 1018.32 1018.36 1018.12 1017.92 1017.48 1017.16 1016.96 1017.04 1016.96 1016.80 1016.72 1016.72 1016.76 1016.76 1016.96 1016.92 1017.00 1017.08 1017.08 1017.20 1017.28 1017.32 1017.28 1017.48 1017.88 1018.12 1018.36 1018.60 1017.96 1017.92 1017.60 1017.44 1017.88 1018.48 1018.36 1017.48 1017.68 1018.08 1017.64 1017.68 1018.04 1017.92 1018.04 1018.40 1018.36 1018.28 1018.16 1018.08 1018.00 1017.92 1017.80 1017.60 1017.44 1017.32 1017.16 1017.04 1016.96 1016.88 1016.84 1016.76 1016.68 1016.64
1018.08 1018.04 1018.00 1017.96 1017.96 1017.92 1017.84 1017.80 1018.04 1018.12 1018.24 1018.28 1018.24 1018.20 1018.12 1017.84 1017.72 1017.52 1017.24 1017.28 1017.20 1017.12 1017.08 1017.08 1017.04 1017.20 1017.20 1017.40 1017.36 1017.32 1017.44 1017.32 1017.12 1017.24 1017.64 1018.00 1017.48 1018.12 1018.64 1018.52 1018.24 1018.28 1017.84 1017.60 1017.60 1018.04 1018.60 1018.04 1017.88 1018.16 1018.04 1017.96 1018.12 1018.04 1018.00 1018.00 1018.28 1018.32 1018.24 1018.20 1018.16 1018.12 1018.00 1017.88 1017.76 1017.60 1017.48 1017.36 1017.24 1017.12 1017.00 1016.88 1016.68 1016.52
1018.24 1018.12 1018.12 1018.00 1017.96 1017.88 1017.80 1017.88 1018.04 1018.36 1018.48 1018.36 1018.20 1018.20 1018.16 1018.12 1018.00 1017.88 1017.72 1017.36 1017.08 1017.12 1017.12 1017.12 1017.16 1017.44 1017.80 1017.76 1017.48 1017.36 1017.40 1017.40 1017.28 1017.28 1017.96 1017.16 1017.12 1017.80 1017.96 1018.48 1018.16 1018.28 1018.00 1018.04 1017.52 1018.36 1018.60 1018.00 1017.88 1018.08 1018.08 1018.12 1018.00 1018.04 1018.08 1018.08 1018.04 1018.08 1018.08 1018.20 1018.16 1018.16 1018.12 1018.08 1018.00 1017.88 1017.76 1017.68 1017.52 1017.40 1017.20 1016.96 1016.68 1016.32
1018.20 1018.12 1018.00 1018.24 1018.32 1018.36 1018.40 1018.44 1018.44 1018.40 1018.40 1018.28 1018.08 1017.92 1018.00 1018.32 1018.44 1018.08 1018.04 1018.36 1018.36 1017.76 1017.16 1017.24 1017.16 1017.24 1017.36 1017.48 1017.44 1017.28 1017.32 1017.28 1017.16 1016.88 1016.88 1016.68 1017.28 1017.76 1017.64 1017.80 1018.40 1018.76 1018.48 1018.00 1017.60 1018.64 1018.64 1018.44 1018.16 1018.12 1018.44 1018.80 1018.52 1018.08 1018.24 1018.20 1018.12 1018.00 1017.92 1017.96 1018.00 1018.08 1018.04 1018.04 1018.04 1018.08 1018.04 1017.92 1017.84 1017.64 1017.44 1017.16 1016.72 1016.40
1018.28 1018.16 1018.04 1018.16 1018.56 1018.56 1018.52 1018.44 1018.36 1018.24 1018.16 1018.08 1018.08 1017.92 1017.96 1018.16 1018.28 1017.96 1018.12 1018.32 1018.40 1018.44 1017.92 1017.44 1017.40 1017.44 1017.28 1017.24 1017.28 1017.20 1017.16 1017.08 1016.88 1016.76 1016.72 1016.72 1016.92 1017.52 1017.76 1017.72 1017.92 1018.36 1018.56 1018.04 1017.68 1018.40 1018.40 1018.16 1018.44 1018.04 1018.32 1018.80 1019.24 1018.72 1018.40 1018.52 1018.32 1018.20 1018.08 1018.08 1018.08 1018.04 1017.84 1017.76 1017.80 1017.96 1018.04 1018.00 1018.00 1017.96 1017.84 1017.64 1017.20 1016.68
1018.48 1018.40 1018.36 1018.12 1018.56 1018.68 1018.60 1018.48 1018.52 1018.60 1018.60 1018.40 1018.04 1018.04 1017.92 1017.72 1017.56 1017.56 1017.84 1017.96 1018.20 1018.28 1017.88 1017.72 1017.52 1017.36 1017.24 1017.16 1017.04 1017.04 1016.96 1016.84 1016.68 1016.68 1016.72 1016.72 1016.80 1017.12 1017.48 1017.84 1018.04 1018.28 1018.28 1018.20 1018.16 1018.24 1018.88 1018.36 1018.60 1018.48 1018.64 1018.52 1018.52 1018.76 1018.80 1018.80 1018.60 1018.44 1018.32 1018.24 1018.28 1018.08 1017.80 1017.76 1017.68 1017.64 1017.72 1017.84 1017.92 1017.92 1017.88 1017.84 1017.68 1017.36
1018.80 1018.84 1018.60 1018.40 1018.48 1018.68 1018.52 1018.36 1018.16 1018.08 1018.24 1018.56 1018.60 1018.52 1018.48 1018.04 1017.80 1017.64 1017.56 1017.80 1018.12 1018.16 1018.16 1018.00 1017.80 1017.52 1017.36 1017.20 1017.40 1017.40 1017.16 1017.04 1017.04 1016.88 1016.92 1016.92 1016.92 1016.92 1017.12 1017.64 1018.12 1018.48 1018.68 1018.28 1018.20 1018.24 1018.68 1018.96 1018.80 1018.92 1019.00 1019.08 1018.96 1018.64 1019.00 1019.00 1018.88 1018.64 1018.44 1018.32 1018.32 1018.24 1018.00 1017.96 1017.88 1017.84 1017.76 1017.68 1017.72 1017.88 1017.88 1017.84 1017.76 1017.72
1019.12 1018.88 1018.76 1018.52 1018.56 1018.72 1018.68 1018.48 1018.40 1018.40 1018.24 1018.08 1018.28 1018.68 1018.84 1018.68 1018.40 1018.04 1017.80 1017.80 1017.80 1017.88 1017.92 1017.88 1017.96 1017.84 1017.64 1017.40 1017.48 1017.76 1018.00 1018.04 1017.64 1017.24 1017.24 1017.28 1017.32 1017.48 1017.60 1017.68 1017.76 1018.24 1018.36 1018.28 1018.12 1018.16 1018.40 1018.92 1018.76 1019.00 1019.28 1019.04 1019.20 1019.08 1019.00 1018.96 1018.92 1018.64 1018.52 1018.48 1018.32 1018.28 1018.12 1018.04 1018.12 1018.04 1017.92 1017.84 1017.76 1017.84 1017.72 1017.64 1017.64 1017.64
1019.16 1019.00 1018.80 1018.68 1018.76 1018.80 1018.76 1018.72 1018.48 1018.24 1018.12 1017.96 1018.12 1018.44 1018.76 1019.04 1018.80 1018.32 1017.92 1017.68 1017.60 1017.68 1017.76 1017.84 1017.76 1017.64 1017.52 1017.48 1017.56 1017.72 1017.68 1017.84 1018.12 1017.96 1017.72 1017.72 1017.68 1017.72 1017.88 1018.08 1018.24 1018.28 1018.36 1018.36 1018.32 1018.28 1018.36 1018.72 1018.92 1018.92 1018.92 1019.16 1019.28 1019.36 1019.24 1018.84 1018.80 1018.84 1018.92 1018.48 1018.36 1018.32 1018.28 1018.16 1018.20 1018.20 1018.04 1017.88 1017.80 1017.72 1017.64 1017.56 1017.40 1017.32
1019.16 1019.16 1019.16 1019.00 1018.72 1018.60 1018.56 1018.56 1018.60 1018.36 1018.12 1018.00 1017.88 1018.08 1018.68 1018.88 1018.84 1018.76 1018.24 1017.96 1017.80 1017.84 1017.92 1017.72 1017.64 1017.56 1017.48 1017.40 1017.52 1017.40 1017.28 1017.64 1017.92 1018.12 1018.08 1018.28 1018.28 1018.20 1018.28 1018.56 1018.68 1018.72 1018.60 1018.60 1018.64 1018.60 1018.60 1018.72 1018.92 1018.88 1018.96 1018.96 1019.12 1019.20 1019.32 1019.28 1019.08 1018.92 1018.96 1018.84 1018.68 1018.44 1018.44 1018.32 1018.24 1018.36 1018.32 1018.08 1017.96 1017.92 1017.84 1017.72 1017.60 1017.44
1019.24 1019.08 1018.92 1018.68 1018.44 1018.16 1018.12 1018.16 1018.04 1017.92 1017.84 1017.96 1018.04 1018.08 1018.48 1018.84 1018.88 1018.88 1018.68 1018.12 1017.76 1017.80 1017.72 1017.88 1018.08 1018.16 1018.08 1018.04 1017.92 1017.84 1017.80 1018.00 1018.40 1018.52 1018.64 1018.80 1019.12 1018.92 1018.92 1019.24 1019.32 1019.16 1019.00 1018.96 1018.92 1018.96 1018.88 1019.00 1019.12 1019.12 1019.08 1019.12 1019.08 1019.20 1019.20 1019.20 1019.16 1018.92 1018.92 1018.88 1018.80 1018.28 1018.28 1018.36 1018.40 1018.36 1018.44 1018.36 1018.12 1018.00 1017.84 1017.68 1017.60 1017.60
1018.72 1018.60 1018.40 1018.24 1018.28 1018.20 1018.24 1018.16 1018.08 1018.00 1017.88 1017.84 1017.96 1018.28 1018.32 1018.36 1018.40 1018.32 1018.00 1017.56 1017.40 1017.56 1017.88 1018.08 1018.12 1018.12 1018.08 1018.04 1018.12 1018.36 1018.44 1018.68 1018.84 1018.68 1018.76 1018.88 1019.00 1019.00 1019.08 1019.28 1019.56 1019.96 1019.72 1019.48 1019.44 1019.40 1019.32 1019.32 1019.28 1019.32 1019.52 1019.40 1019.12 1019.28 1019.20 1019.16 1019.20 1019.08 1018.92 1018.88 1018.92 1019.16 1018.64 1018.40 1018.36 1018.44 1018.56 1018.44 1018.20 1017.96 1017.88 1017.72 1017.48 1017.44
1018.84 1018.56 1018.28 1018.16 1017.96 1017.84 1017.68 1017.56 1017.60 1017.68 1017.64 1017.60 1017.60 1017.56 1017.60 1017.68 1017.72 1017.68 1017.60 1017.52 1017.60 1017.72 1017.84 1018.04 1018.08 1018.12 1018.16 1018.32 1018.48 1018.56 1018.76 1019.04 1019.16 1019.08 1019.16 1019.36 1019.52 1019.48 1019.52 1019.84 1020.12 1020.12 1020.16 1020.00 1019.92 1019.80 1019.64 1019.64 1019.64 1019.60 1019.60 1019.64 1019.68 1019.40 1019.20 1019.24 1019.28 1019.16 1019.16 1019.00 1019.00 1018.80 1018.64 1018.68 1018.64 1018.56 1018.68 1018.64 1018.48 1018.28 1018.20 1017.96 1017.72 1017.52
1018.72 1018.24 1018.04 1018.08 1018.12 1017.96 1018.08 1018.12 1018.04 1018.04 1018.12 1018.24 1018.16 1018.12 1017.96 1017.84 1017.80 1017.76 1017.72 1018.00 1018.24 1018.24 1018.24 1018.48 1018.56 1018.68 1018.60 1018.60 1018.60 1018.80 1019.12 1019.40 1019.56 1019.44 1019.52 1019.64 1019.80 1019.84 1019.84 1020.28 1020.56 1020.52 1020.44 1020.48 1020.40 1020.24 1020.08 1019.96 1019.84 1019.80 1019.72 1019.60 1019.48 1019.48 1019.44 1019.36 1019.16 1019.16 1019.28 1019.24 1019.20 1019.08 1018.84 1018.80 1018.84 1018.92 1018.92 1018.84 1018.72 1018.40 1018.24 1018.08 1017.76 1017.64
1018.80 1018.32 1018.32 1018.24 1018.24 1018.40 1018.44 1018.56 1018.52 1018.48 1018.52 1018.56 1018.60 1018.68 1018.64 1018.44 1018.44 1018.36 1018.32 1018.32 1018.44 1018.56 1018.68 1018.84 1019.00 1019.16 1019.12 1019.20 1019.16 1019.28 1019.56 1019.84 1019.92 1019.92 1019.84 1020.04 1020.04 1020.16 1020.28 1020.52 1020.72 1020.68 1020.64 1020.56 1020.60 1020.60 1020.36 1020.20 1020.04 1019.80 1019.68 1019.60 1019.44 1019.48 1019.44 1019.40 1019.24 1019.24 1019.32 1019.28 1019.20 1019.20 1018.96 1018.96 1018.96 1019.04 1019.08 1019.00 1018.92 1018.68 1018.36 1018.08 1017.88 1017.68
1018.68 1018.60 1018.56 1018.60 1018.60 1018.68 1018.68 1018.84 1018.96 1019.00 1019.08 1019.08 1019.04 1019.12 1019.12 1019.12 1019.16 1019.12 1019.12 1019.20 1019.08 1019.12 1019.24 1019.44 1019.60 1019.72 1019.80 1019.92 1019.96 1020.00 1020.16 1020.20 1020.24 1020.20 1020.16 1020.12 1020.20 1020.32 1020.40 1020.52 1020.72 1020.84 1020.80 1020.76 1020.76 1020.76 1020.64 1020.48 1020.40 1020.20 1020.00 1019.80 1019.68 1019.40 1019.68 1019.60 1019.60 1019.52 1019.48 1019.28 1019.16 1019.20 1019.12 1018.96 1019.04 1019.04 1019.04 1018.88 1018.72 1018.84 1018.44 1018.12 1018.00 1017.80
1019.00 1018.84 1018.96 1019.04 1019.08 1019.00 1019.08 1019.24 1019.20 1019.16 1019.24 1019.36 1019.40 1019.48 1019.56 1019.76 1019.84 1019.92 1020.08 1020.16 1020.00 1020.04 1020.08 1020.24 1020.32 1020.40 1020.48 1020.56 1020.68 1020.68 1020.72 1020.64 1020.68 1020.64 1020.68 1020.68 1020.72 1020.72 1020.64 1020.84 1020.96 1021.04 1020.96 1020.96 1021.00 1020.96 1021.00 1020.80 1020.72 1020.64 1020.44 1020.08 1019.80 1019.48 1019.56 1020.04 1019.96 1020.00 1019.84 1019.56 1019.32 1019.36 1019.28 1019.20 1019.24 1019.12 1018.92 1018.76 1018.76 1018.72 1018.56 1018.40 1018.12 1017.88
1019.48 1019.32 1019.32 1019.44 1019.44 1019.48 1019.56 1019.64 1019.72 1019.76 1019.80 1019.88 1019.96 1019.96 1020.08 1020.24 1020.36 1020.44 1020.56 1020.40 1020.36 1020.48 1020.64 1020.60 1020.64 1020.64 1020.72 1020.84 1020.92 1021.00 1021.08 1021.12 1021.24 1021.20 1021.16 1021.08 1020.96 1020.92 1020.88 1020.92 1020.96 1021.00 1020.92 1020.92 1021.04 1021.04 1021.12 1021.04 1020.96 1021.00 1020.88 1020.68 1020.24 1020.04 1019.48 1019.84 1020.12 1020.32 1020.04 1019.96 1019.68 1019.44 1019.48 1019.44 1019.36 1019.08 1018.76 1018.76 1018.56 1018.44 1018.52 1018.44 1018.20 1017.88
1019.72 1019.72 1019.80 1019.88 1019.92 1019.92 1019.96 1019.96 1020.12 1020.20 1020.32 1020.36 1020.40 1020.48 1020.56 1020.64 1020.76 1020.84 1020.68 1020.60 1020.68 1020.64 1020.68 1020.72 1020.88 1020.92 1020.92 1021.04 1021.08 1021.20 1021.24 1021.28 1021.28 1021.28 1021.20 1021.12 1021.12 1021.08 1021.04 1021.04 1020.96 1021.00 1021.00 1020.96 1021.04 1021.16 1021.20 1021.20 1021.28 1021.28 1021.36 1020.96 1020.48 1020.08 1019.84 1019.84 1020.16 1020.12 1020.28 1020.28 1019.96 1019.68 1019.52 1019.44 1019.16 1018.88 1018.80 1018.52 1018.40 1018.32 1018.32 1018.24 1017.96 1017.88
1019.96 1020.08 1020.16 1020.24 1020.32 1020.32 1020.44 1020.52 1020.52 1020.64 1020.68 1020.68 1020.72 1020.84 1020.96 1021.00 1021.04 1021.08 1021.12 1021.20 1021.28 1021.20 1021.24 1021.28 1021.40 1021.44 1021.44 1021.52 1021.60 1021.72 1021.80 1021.68 1021.52 1021.36 1021.28 1021.16 1021.28 1021.40 1021.28 1021.12 1021.00 1020.92 1021.04 1020.88 1020.84 1021.04 1021.32 1021.52 1021.56 1021.68 1021.56 1021.48 1021.32 1021.04 1021.04 1021.00 1020.56 1020.04 1020.08 1020.32 1020.20 1019.96 1019.44 1019.36 1019.16 1018.88 1018.60 1018.40 1018.24 1018.24 1018.20 1017.96 1018.00 1018.16
1020.48 1020.40 1020.48 1020.52 1020.64 1020.72 1020.76 1020.80 1020.88 1020.96 1021.04 1021.12 1021.20 1021.20 1021.20 1021.28 1021.32 1021.32 1021.40 1021.56 1021.72 1021.80 1021.80 1022.00 1022.16 1022.04 1022.00 1022.12 1022.16 1022.16 1022.24 1022.16 1022.00 1021.88 1021.84 1021.80 1021.76 1021.80 1021.76 1021.68 1021.64 1021.76 1021.88 1021.60 1021.48 1021.44 1021.68 1021.80 1022.00 1022.08 1022.04 1021.88 1021.56 1021.28 1021.08 1020.84 1020.56 1020.16 1019.60 1019.84 1020.20 1020.16 1019.92 1019.64 1019.28 1019.08 1018.80 1018.68 1018.76 1018.36 1018.00 1017.80 1017.60 1017.52
1020.68 1020.72 1020.80 1020.80 1020.88 1020.96 1021.04 1021.16 1021.24 1021.28 1021.36 1021.40 1021.48 1021.60 1021.60 1021.64 1021.60 1021.76 1021.92 1021.96 1021.92 1021.96 1022.00 1022.20 1022.32 1022.36 1022.48 1022.52 1022.48 1022.32 1022.16 1022.04 1022.12 1022.08 1022.00 1021.92 1021.92 1021.92 1022.12 1022.24 1022.08 1021.88 1021.84 1021.68 1021.52 1021.56 1021.64 1021.84 1022.04 1022.12 1022.08 1021.80 1021.48 1021.20 1020.88 1020.36 1019.76 1019.48 1019.56 1019.44 1019.76 1019.92 1020.00 1019.96 1019.68 1019.40 1019.16 1019.08 1018.88 1018.56 1018.28 1018.12 1018.04 1017.92
1020.92 1021.00 1021.00 1021.00 1021.08 1021.12 1021.16 1021.32 1021.36 1021.40 1021.48 1021.52 1021.52 1021.64 1021.84 1022.00 1022.24 1022.40 1022.32 1022.44 1022.40 1022.40 1022.32 1022.36 1022.52 1022.56 1022.60 1022.64 1022.56 1022.48 1022.36 1022.28 1022.36 1022.52 1022.48 1022.32 1022.12 1022.04 1022.16 1022.08 1021.96 1021.80 1021.88 1021.88 1021.84 1021.84 1021.88 1021.88 1021.80 1021.68 1021.48 1021.20 1020.84 1020.60 1020.24 1019.84 1019.64 1019.44 1019.36 1019.16 1018.88 1019.24 1019.52 1019.64 1019.72 1019.68 1019.40 1019.12 1018.84 1018.48 1018.20 1017.96 1017.84 1017.56
1021.12 1021.16 1021.28 1021.32 1021.32 1021.36 1021.40 1021.48 1021.52 1021.52 1021.60 1021.68 1021.84 1021.92 1021.88 1022.00 1022.12 1022.20 1022.20 1022.48 1022.56 1022.52 1022.60 1022.68 1022.72 1022.72 1022.64 1022.56 1022.60 1022.68 1022.64 1022.52 1022.52 1022.56 1022.60 1022.56 1022.48 1022.48 1022.40 1022.28 1022.20 1022.12 1022.08 1022.04 1021.92 1021.88 1021.64 1021.44 1021.32 1021.20 1020.96 1020.60 1020.16 1020.04 1019.92 1019.64 1019.52 1019.44 1019.40 1019.16 1019.08 1019.00 1018.84 1019.00 1019.20 1019.32 1019.40 1019.44 1019.40 1019.32 1019.16 1018.96 1018.52 1018.04
1021.40 1021.44 1021.48 1021.56 1021.60 1021.68 1021.68 1021.68 1021.72 1021.76 1021.80 1021.84 1022.00 1022.04 1022.04 1022.16 1022.36 1022.52 1022.56 1022.64 1022.72 1022.84 1022.88 1022.92 1022.92 1022.88 1022.88 1022.76 1022.76 1022.72 1022.60 1022.48 1022.48 1022.64 1022.64 1022.64 1022.64 1022.52 1022.32 1022.20 1022.16 1022.08 1021.96 1021.88 1021.76 1021.60 1021.32 1021.20 1021.08 1021.08 1020.88 1020.44 1020.32 1020.28 1020.04 1019.92 1019.56 1019.36 1019.40 1019.52 1019.40 1019.28 1018.96 1018.60 1018.48 1018.60 1018.88 1019.20 1019.16 1019.24 1019.44 1019.44 1019.32 1019.20
1021.64 1021.68 1021.80 1021.84 1021.88 1021.88 1021.96 1021.96 1021.96 1022.00 1022.00 1022.04 1022.04 1022.20 1022.40 1022.48 1022.64 1022.76 1022.92 1023.00 1023.04 1023.08 1023.00 1022.96 1023.00 1023.04 1022.96 1022.88 1022.80 1022.72 1022.68 1022.88 1022.84 1022.72 1022.72 1022.64 1022.60 1022.60 1022.56 1022.44 1022.28 1022.12 1022.00 1021.96 1022.08 1021.84 1021.52 1021.36 1020.88 1020.68 1020.60 1020.36 1020.24 1020.32 1020.20 1020.00 1019.88 1019.72 1019.52 1019.48 1019.36 1019.16 1018.92 1018.84 1018.88 1018.64 1018.40 1018.24 1018.68 1018.80 1019.00 1019.20 1019.16 1019.08
Wind_Speed
4 4 4 4 4 4 3 3 3 2 2 3 3 3 3 2 4 4 5 3 4 2 3 4 2 5 5 4 4 3 3 7 7 5 5 5 5 7 8 8 9 10 11 11 11 11 11 10 10 11 11 10 8 5 2 7 9 8 10 10 8 7 9 7 6 6 7 8 9 9 9 10 11 12
4 4 5 4 4 3 4 3 3 2 3 3 3 3 3 3 4 4 5 5 4 4 3 3 3 3 4 3 3 2 3 6 7 5 5 5 6 8 4 8 10 11 11 11 11 11 10 9 10 11 11 11 9 5 1 8 10 11 11 10 9 7 8 8 7 7 7 8 9 9 9 10 11 11
4 5 5 4 5 4 4 4 3 2 3 3 3 3 3 4 4 4 4 6 1 3 4 4 4 4 3 4 4 3 2 3 6 5 5 5 6 9 5 8 11 12 11 12 11 11 11 11 11 12 11 11 10 6 2 7 11 11 11 11 10 8 7 8 8 8 8 8 9 9 9 10 10 10
4 5 5 5 4 4 4 4 3 3 3 3 3 3 3 4 4 4 4 6 6 4 5 5 4 3 4 3 4 4 4 2 3 5 4 5 6 3 4 10 13 12 12 12 12 12 11 11 12 11 12 12 11 8 4 4 10 11 11 11 10 8 8 8 8 7 8 7 8 9 9 10 9 9
5 5 5 5 5 4 5 4 5 5 4 4 4 4 4 5 4 4 4 5 6 4 3 3 3 3 4 4 3 4 5 5 5 5 4 4 5 4 4 5 12 12 11 11 11 12 11 12 12 12 12 12 11 10 6 4 5 10 10 10 9 9 9 8 8 8 7 8 7 7 7 9 9 10
5 4 5 6 5 4 5 6 6 6 6 6 6 5 5 5 4 3 4 5 5 6 3 3 2 3 2 4 2 4 5 5 4 5 5 4 4 4 4 4 8 11 10 10 10 11 12 12 12 12 12 12 10 10 8 5 4 8 9 10 11 10 10 9 8 8 8 7 8 7 6 5 6 9
5 5 6 6 5 4 5 6 6 6 6 6 6 7 5 6 5 4 5 4 5 6 5 3 4 1 3 4 4 3 4 3 2 4 4 4 4 3 4 4 5 8 8 8 9 11 12 12 12 13 13 12 12 10 9 8 4 7 9 10 10 10 10 9 9 8 8 8 8 7 7 6 5 7
6 6 6 6 6 5 6 6 6 5 6 6 6 7 5 5 6 4 4 5 5 5 5 3 4 3 4 4 3 3 3 3 2 3 3 3 4 4 3 3 4 5 4 6 8 10 11 12 12 13 14 14 14 14 13 10 7 4 8 9 9 9 9 9 9 9 8 7 7 7 7 7 7 6
7 7 7 7 7 6 6 7 6 6 7 6 6 6 5 5 5 4 4 5 5 5 6 5 3 3 4 3 3 3 4 3 1 1 3 3 4 3 4 3 3 4 5 7 8 10 11 12 12 13 13 14 15 15 15 13 11 7 5 6 7 8 8 8 8 7 8 9 8 8 7 8 8 8
7 7 7 7 7 7 7 7 7 6 7 6 6 7 6 5 4 5 5 5 5 5 5 5 4 3 4 3 3 2 3 4 3 2 2 2 3 3 4 4 3 4 5 5 4 6 9 12 13 13 13 13 14 15 15 15 13 11 7 5 3 4 5 7 8 8 7 7 9 9 8 7 7 7
7 7 7 7 7 7 7 8 8 7 7 6 7 7 6 6 6 6 5 5 5 5 6 5 5 4 3 2 3 1 2 3 2 3 3 3 2 3 2 3 4 4 3 8 7 7 8 8 10 11 13 14 12 13 16 15 14 12 9 7 5 3 2 3 4 6 7 7 7 7 8 9 8 7
8 7 8 8 7 7 7 7 7 7 7 6 7 6 5 5 6 6 6 5 5 6 6 6 5 4 3 3 3 3 3 3 2 1 2 2 3 2 1 3 3 3 3 3 4 6 8 7 9 10 10 11 13 13 12 16 15 13 11 9 6 4 3 2 3 4 5 6 6 7 8 7 7 7
7 7 8 8 9 8 8 9 9 9 7 6 6 6 5 5 5 6 6 5 5 5 6 6 4 4 4 4 4 3 3 2 2 1 2 1 1 1 1 2 3 3 2 3 4 4 4 4 5 7 8 9 10 12 13 11 13 13 13 13 11 8 5 2 1 2 3 3 4 4 7 6 6 7
8 8 8 8 10 10 11 11 11 10 11 11 9 7 5 5 6 6 6 6 6 7 6 7 6 6 5 5 4 4 3 2 2 2 1 2 1 2 1 2 2 4 3 2 3 3 3 4 5 7 8 8 10 9 10 9 9 11 13 13 13 13 12 10 6 3 2 2 3 3 7 7 7 8
9 9 9 9 8 9 10 10 12 11 11 11 11 12 11 9 8 7 7 7 6 6 7 7 7 7 6 6 4 4 3 2 2 2 2 2 1 1 2 2 2 3 3 1 2 3 3 3 5 6 7 9 9 9 9 9 12 14 14 14 14 14 13 13 12 11 7 2 2 3 6 7 6 7
8 8 8 8 7 7 8 8 7 8 9 8 8 8 8 9 11 11 9 8 8 7 7 7 8 7 6 5 4 5 3 3 2 2 2 2 2 2 2 1 0 2 3 1 1 3 3 3 5 6 6 8 9 9 8 11 12 12 13 13 13 14 14 13 13 12 12 10 7 2 4 4 3 4
7 7 8 8 8 7 8 7 2 6 7 11 10 9 10 11 11 11 13 13 11 8 8 8 8 7 6 6 5 5 3 1 3 3 3 2 2 2 2 1 1 2 3 2 1 2 2 2 4 6 5 7 7 8 10 12 12 12 13 13 13 13 14 14 14 13 13 12 11 9 7 4 2 2
7 7 7 7 8 8 6 1 4 7 6 6 7 8 8 8 10 12 13 13 13 12 9 9 9 7 6 6 4 4 3 3 4 4 4 1 2 2 1 1 2 1 3 2 1 1 2 2 3 5 5 7 8 9 10 12 12 12 13 13 14 14 14 14 14 14 13 12 11 11 10 9 8 6
7 7 7 7 8 7 6 4 5 6 7 5 6 8 9 9 9 8 8 8 8 8 9 9 9 8 5 5 4 3 3 4 3 3 3 2 1 1 3 3 2 1 2 2 3 1 2 2 3 4 4 5 6 8 10 11 12 13 13 13 13 14 14 14 14 14 14 13 12 10 10 9 10 9
6 6 7 7 8 8 9 6 9 8 7 6 7 7 9 9 9 8 1 4 4 3 3 4 4 3 4 5 2 2 1 2 3 3 3 2 3 4 4 4 3 1 2 2 1 1 2 1 2 3 4 4 5 5 7 9 10 12 13 13 13 14 14 14 15 15 14 13 12 11 8 9 11 11
8 7 8 8 9 9 10 6 7 10 9 7 8 8 9 9 8 7 3 4 2 2 3 5 6 6 5 5 3 1 2 4 3 3 3 4 5 4 3 2 3 1 1 2 1 0 2 1 1 4 3 4 4 4 4 5 7 9 12 12 12 12 14 14 15 15 15 15 14 12 11 6 7 10
6 8 9 9 9 9 8 9 3 3 5 9 9 9 10 10 10 7 4 3 3 5 3 4 6 6 3 4 4 3 3 6 5 5 4 3 3 3 3 3 1 2 1 3 2 1 1 1 1 2 5 4 3 4 4 4 4 6 7 9 11 10 11 13 14 14 14 14 14 14 13 13 7 4
6 6 6 9 7 5 5 7 6 5 1 6 9 9 7 6 9 6 1 4 4 3 1 2 2 2 2 2 4 3 5 6 7 5 5 2 4 3 3 1 3 3 3 3 2 1 1 1 1 2 3 3 3 3 3 4 4 4 4 4 6 7 6 8 12 11 13 13 13 13 14 16 11 4
5 5 7 3 6 6 6 5 4 3 2 3 4 6 5 5 4 3 3 5 3 2 1 2 2 0 2 3 5 6 6 6 6 5 4 3 2 1 2 2 2 1 3 3 4 1 1 1 1 3 3 4 3 3 3 3 3 4 4 3 4 3 3 3 7 10 10 11 10 10 11 13 13 4
5 5 6 6 4 3 3 3 3 5 7 5 2 2 3 2 2 3 3 3 1 2 2 3 2 1 2 3 4 4 4 5 5 4 3 2 1 1 1 2 2 4 4 5 7 1 1 2 2 1 2 2 1 2 3 3 2 3 3 4 4 4 4 4 5 5 5 8 10 8 9 9 11 9
5 4 4 5 3 2 3 3 3 5 4 5 5 6 8 9 8 0 3 3 1 1 1 1 2 2 1 1 1 3 4 4 4 4 4 3 3 3 3 2 1 3 4 4 5 1 1 2 3 2 1 3 0 2 3 2 2 1 1 2 3 4 4 4 4 5 5 5 5 7 4 7 7 8
6 5 5 5 5 5 5 5 3 1 2 1 2 4 9 10 8 4 3 5 4 3 2 2 3 2 1 2 3 2 2 2 2 2 3 5 6 7 7 7 6 6 4 3 3 2 1 2 2 3 2 2 2 1 1 2 1 1 1 0 1 3 3 3 4 4 5 5 4 4 2 5 3 3
5 5 5 5 8 10 10 10 9 5 3 3 4 2 2 7 9 4 3 2 3 3 4 4 5 5 4 4 4 3 2 4 3 3 5 5 7 7 8 8 8 7 6 5 5 4 3 3 3 2 3 3 3 3 3 1 1 1 3 1 1 2 3 3 3 4 4 4 4 4 5 4 5 3
5 7 11 12 12 11 11 11 9 7 7 8 6 4 2 1 1 4 5 3 1 1 2 2 3 4 5 5 5 4 6 6 4 4 5 6 6 8 9 8 7 5 5 5 5 5 5 4 3 2 2 2 3 1 3 3 3 2 3 3 2 1 3 3 3 4 4 5 4 4 5 5 4 4
11 11 11 11 10 10 8 6 3 3 2 4 6 9 9 3 3 4 5 6 5 3 3 2 3 4 4 6 4 5 6 5 3 3 5 6 5 5 6 6 6 6 6 6 6 6 5 5 4 3 2 2 2 3 2 4 3 2 2 3 4 2 1 3 3 3 5 5 5 4 4 5 3 4
5 6 6 5 6 5 7 3 2 4 4 4 5 5 6 6 6 6 5 3 4 5 6 5 5 4 5 5 5 5 5 5 4 3 3 3 4 3 3 4 6 5 4 7 8 8 7 6 5 5 3 3 2 2 3 4 4 4 2 3 4 4 5 4 3 3 5 5 5 4 5 5 3 3
6 5 2 2 1 1 1 3 4 6 6 6 5 6 5 5 5 5 6 6 5 6 5 5 5 4 4 5 6 5 6 6 5 5 5 4 3 2 2 3 4 3 3 4 5 7 7 7 6 4 4 3 3 3 2 3 3 3 4 3 4 4 4 4 4 4 6 6 5 5 4 4 4 3
5 2 1 2 2 3 4 4 5 5 6 6 6 6 5 5 5 5 5 6 6 6 5 5 5 5 5 6 6 7 7 6 6 5 5 5 4 4 4 5 3 2 2 3 3 4 5 5 5 4 3 3 3 3 4 5 2 2 3 4 4 5 4 4 4 5 6 6 6 5 4 3 3 3
3 2 2 3 4 4 4 5 5 5 5 6 7 7 8 8 7 7 7 7 7 7 7 7 7 6 6 7 6 6 6 5 5 6 6 4 4 4 3 4 3 2 2 2 3 4 4 4 4 3 2 2 1 1 3 4 4 2 3 4 4 4 3 4 4 5 5 5 5 6 4 3 2 3
1 3 3 4 5 5 5 6 6 6 6 6 7 7 7 8 8 8 8 8 7 7 7 8 7 7 7 7 6 6 5 5 5 5 5 5 5 4 3 3 3 2 2 2 3 3 4 4 5 5 4 3 3 3 7 5 3 4 4 4 3 3 4 3 4 5 6 5 4 5 5 3 2 2
4 4 4 5 5 5 5 6 5 6 6 6 7 7 7 8 8 8 8 7 6 6 6 6 6 6 6 6 6 5 5 4 4 4 5 5 4 3 3 3 3 2 2 2 3 4 4 4 4 5 5 5 5 5 3 8 7 3 4 4 2 4 4 4 5 5 5 4 3 4 5 5 4 3
4 4 4 5 5 5 5 6 6 6 7 7 7 7 7 7 7 7 6 5 7 7 7 6 6 6 6 5 5 5 5 5 4 4 4 3 3 3 2 2 2 2 2 2 2 3 3 4 4 4 4 5 5 5 1 4 6 3 4 3 4 3 4 4 5 5 3 3 5 4 5 6 5 5
5 5 6 6 6 6 6 6 6 6 6 6 6 6 7 6 6 6 5 6 6 6 6 6 6 6 5 5 5 4 4 3 3 3 3 3 3 3 2 2 2 1 2 2 1 2 3 3 3 3 3 4 5 4 3 0 2 3 6 3 5 5 3 4 4 4 4 4 5 5 6 7 6 6
6 6 6 6 6 6 6 6 6 6 6 6 6 6 5 5 5 5 6 6 6 6 6 6 6 6 6 6 6 5 5 4 4 3 3 3 3 3 3 3 3 2 3 3 2 2 2 3 2 3 3 4 4 4 5 6 5 4 1 4 4 4 4 4 5 5 5 5 5 6 6 5 5 5
6 6 6 6 6 6 6 5 6 6 6 6 6 5 5 5 5 5 5 6 6 6 6 6 6 5 5 5 4 3 2 2 2 2 2 2 2 2 2 3 3 3 3 3 3 2 2 2 2 2 4 5 6 6 7 6 7 6 4 9 6 3 4 5 5 6 6 5 6 7 7 5 7 4
5 6 6 6 6 6 5 5 5 5 5 5 5 5 5 5 5 5 5 5 4 4 4 4 4 4 4 4 4 4 3 3 3 3 3 3 2 2 2 3 3 3 3 3 3 3 3 2 4 6 7 6 6 6 6 6 5 3 3 2 9 8 5 4 4 5 5 5 5 6 6 7 7 6
5 5 5 5 5 5 5 5 4 4 4 4 4 4 4 5 5 5 5 5 5 5 4 4 4 4 4 3 3 3 3 3 3 3 3 3 3 3 2 3 3 2 3 3 3 4 3 4 5 4 4 4 5 5 4 4 4 4 4 4 3 8 11 7 4 4 4 4 5 5 6 6 5 7
4 4 4 4 4 4 4 4 4 4 4 4 4 3 3 3 3 2 3 3 3 3 3 3 3 3 3 3 3 3 3 3 3 2 2 3 2 3 2 2 2 3 3 3 3 4 4 4 4 4 4 5 4 4 5 4 5 5 5 4 4 5 2 10 12 8 5 4 4 4 4 5 6 6
4 4 4 4 4 4 3 3 3 3 3 2 3 2 2 2 3 3 3 3 3 3 3 3 3 4 4 4 3 3 3 2 2 3 3 2 2 3 3 3 3 3 3 3 4 4 4 4 4 4 4 4 4 4 5 5 5 4 5 4 5 4 5 6 4 8 10 10 7 7 2 5 4 6
3 4 4 3 3 3 3 2 2 2 2 2 2 2 2 2 3 3 3 3 3 3 3 4 4 4 4 3 3 3 3 2 3 2 2 2 2 2 2 2 3 3 3 3 4 4 4 4 4 3 4 3 3 4 4 5 5 5 4 4 5 4 5 5 5 6 6 3 9 9 6 1 5 6
Wind_Direction
282 275 279 287 292 294 303 279 254 233 254 256 259 263 281 288 297 313 317 329 331 345 347 337 55 12 5 360 9 22 17 16 332 7 357 1 6 8 346 1 6 7 9 7 4 3 6 1 359 1 3 2 353 346 355 170 168 164 158 157 153 142 139 139 126 120 120 128 132 134 135 138 137 137
273 276 275 277 278 278 270 262 262 213 225 240 243 250 254 249 277 300 299 314 308 317 333 328 7 20 346 351 349 36 347 45 326 6 355 358 7 329 340 11 16 14 12 12 10 11 7 0 2 1 1 1 359 353 29 162 165 168 164 158 159 155 144 148 143 134 133 136 140 143 147 147 146 144
266 271 274 274 272 274 281 281 257 229 223 239 250 251 249 243 260 279 283 293 286 313 317 329 340 346 352 346 347 354 345 36 341 349 353 357 337 288 81 32 26 18 17 15 16 14 14 12 9 6 5 3 2 15 71 154 168 166 166 163 162 161 152 156 156 148 144 144 146 148 153 156 152 148
266 268 271 272 272 275 274 271 266 246 243 261 260 250 242 240 241 251 263 273 294 296 308 320 316 343 347 341 340 353 329 95 211 340 337 348 303 344 50 79 32 23 16 19 17 17 17 14 12 8 7 10 4 13 55 130 163 166 168 167 163 164 162 164 167 159 153 150 152 154 159 161 163 153
266 269 279 281 278 276 270 263 267 266 253 240 251 251 247 256 240 234 247 268 283 285 289 294 308 345 332 354 353 339 339 349 358 322 0 350 5 12 26 50 53 20 19 17 19 22 21 19 17 12 11 12 9 15 28 73 147 164 172 167 161 166 169 172 175 169 163 160 159 160 162 163 164 161
270 270 274 281 279 264 266 273 269 268 274 271 272 262 261 266 262 226 252 263 275 286 275 279 296 313 334 330 357 343 330 348 343 350 359 4 14 19 14 28 58 26 16 19 26 28 29 27 25 21 17 16 17 22 23 60 127 167 172 165 165 170 174 178 178 178 175 170 167 163 163 166 167 165
270 267 268 273 276 272 267 262 264 270 272 277 278 279 277 275 273 241 229 257 269 279 287 292 284 315 338 329 336 324 326 319 337 336 2 2 19 21 17 24 59 40 8 26 35 39 39 36 32 31 28 23 25 29 33 37 80 166 165 164 168 173 177 182 182 182 184 183 180 169 168 171 176 184
272 273 274 274 279 281 274 270 272 265 265 267 268 273 269 263 272 259 233 232 255 275 284 280 299 321 321 323 316 314 305 316 7 351 358 18 27 10 21 42 47 49 11 42 51 50 52 45 39 38 35 33 32 34 36 38 45 112 155 162 170 178 181 185 187 183 184 190 190 184 180 175 173 182
272 272 271 275 273 269 269 270 266 271 266 265 269 270 263 261 262 256 245 237 235 250 263 278 276 285 284 294 297 309 321 316 283 319 356 21 31 14 17 38 78 133 148 110 81 75 67 56 49 44 40 41 38 36 36 38 39 53 114 150 169 179 185 187 192 197 188 187 194 198 198 191 184 180
263 268 271 273 271 267 268 275 278 275 275 268 263 266 268 266 263 260 248 241 239 241 256 265 270 253 288 296 291 303 304 310 332 344 359 44 50 22 27 33 36 32 38 26 83 115 98 89 68 50 44 40 44 41 39 38 41 43 52 84 128 183 193 197 196 196 204 203 196 198 204 210 204 198
261 263 266 268 264 265 265 273 276 277 273 271 275 272 269 263 256 252 246 238 242 245 252 251 250 274 262 258 282 259 275 272 309 341 348 5 49 45 19 31 30 24 64 115 100 73 67 63 65 68 56 44 37 50 42 36 39 43 48 53 67 92 156 207 218 218 210 209 215 214 211 209 215 219
256 258 265 269 265 259 258 260 269 270 270 272 273 268 264 263 258 259 257 249 250 250 247 250 259 254 276 261 257 249 241 249 235 326 337 347 348 26 39 31 28 22 20 19 80 155 155 138 126 95 75 61 48 30 55 43 35 35 39 51 55 60 85 144 199 218 226 229 220 223 232 232 226 222
250 249 259 265 269 270 259 257 260 271 281 282 276 268 259 261 263 263 261 254 254 250 250 251 234 241 249 255 259 261 255 270 318 318 312 316 305 321 202 103 40 7 16 38 45 59 27 56 51 54 47 39 42 48 35 49 43 31 37 39 43 47 41 15 290 241 223 221 233 240 257 242 243 246
254 253 253 254 251 252 252 256 256 252 248 241 260 277 275 268 266 266 265 261 256 257 250 248 247 249 249 254 234 260 258 245 244 260 280 301 339 304 252 136 49 13 354 45 47 36 40 47 60 57 45 48 48 49 46 31 26 34 37 41 43 43 44 45 40 1 297 261 245 212 236 234 233 236
259 260 261 267 256 241 246 247 243 246 249 251 238 243 253 263 271 276 269 262 257 253 252 251 252 256 259 262 261 250 263 248 272 305 297 295 302 294 288 254 144 24 345 10 34 54 39 49 67 63 56 57 53 55 47 24 37 38 39 41 43 45 47 49 52 53 56 83 195 197 228 238 238 241
262 267 270 270 270 260 257 266 252 240 247 244 245 250 248 247 245 251 261 272 271 259 257 253 252 256 251 251 237 255 256 259 250 261 282 270 280 291 257 234 267 42 332 338 9 83 73 72 76 75 71 78 70 60 40 39 41 43 42 43 44 46 47 49 52 55 58 62 69 121 206 229 208 240
268 270 273 276 277 275 254 252 351 23 323 293 275 260 256 252 248 242 242 244 251 268 265 265 257 244 253 248 240 240 259 255 276 270 268 236 255 261 252 234 112 68 325 281 2 55 71 101 95 95 76 73 72 69 47 39 43 43 44 44 45 46 47 47 46 48 50 55 61 68 74 71 73 130
282 282 281 280 280 283 284 113 165 189 210 242 267 262 253 251 243 234 230 235 237 243 255 256 257 255 232 245 242 203 198 231 270 292 304 280 268 233 208 116 118 35 334 329 301 114 106 96 106 97 98 95 85 68 44 40 41 40 41 42 42 43 45 46 46 47 47 48 54 60 71 82 87 87
285 286 286 282 281 286 269 202 220 222 219 216 243 263 271 266 261 250 242 232 228 226 232 244 247 257 240 236 222 197 209 239 261 294 306 311 297 139 150 173 201 175 10 303 255 176 119 145 126 106 106 104 97 85 61 39 41 40 40 41 42 42 42 44 46 47 49 50 50 57 67 81 89 91
299 294 293 295 291 289 282 248 220 222 222 219 230 245 254 261 258 250 158 38 3 319 277 265 284 307 9 33 1 10 312 215 232 238 215 179 175 187 194 203 181 262 88 353 280 152 106 341 119 118 102 100 97 92 85 64 43 42 39 38 40 42 42 43 44 45 48 48 49 48 57 89 98 98
294 293 296 300 299 294 291 278 220 224 227 236 235 237 244 251 254 242 183 175 173 129 87 48 34 24 27 360 351 267 274 269 284 234 216 207 193 201 222 208 225 168 95 72 355 304 96 69 169 130 95 77 87 83 75 81 79 59 47 39 38 41 44 45 44 44 45 44 42 37 29 28 121 129
304 303 304 299 301 304 308 338 282 303 271 253 248 245 252 255 259 262 259 235 176 137 114 55 52 42 350 284 267 256 215 213 233 216 241 210 213 228 231 240 239 122 134 88 356 138 54 74 342 205 140 118 87 80 73 63 101 135 93 62 41 34 48 52 50 47 45 43 39 33 21 5 327 99
321 329 329 38 44 26 25 37 45 46 345 261 261 256 257 255 251 261 264 287 309 320 131 93 68 154 199 268 260 195 192 202 223 243 261 221 222 236 261 243 155 185 142 82 330 165 113 312 65 313 227 211 90 67 67 57 45 43 49 63 57 25 35 66 64 56 53 46 39 33 21 11 342 78
320 321 315 349 49 46 48 54 58 82 109 226 296 297 248 249 251 63 40 14 320 237 26 64 59 171 253 247 247 232 198 197 213 223 224 225 248 231 209 210 215 241 104 85 347 114 80 294 45 331 324 292 184 133 87 60 37 35 29 48 58 49 43 63 95 85 69 56 47 46 29 24 4 30
334 334 331 322 59 52 88 82 62 20 11 359 285 285 234 212 112 101 109 122 310 284 27 51 26 3 228 217 232 237 220 214 188 170 111 112 114 244 184 125 128 111 84 50 340 278 44 354 7 340 335 289 310 183 108 82 42 38 31 30 36 25 24 37 27 37 70 83 56 40 44 29 30 15
328 326 325 315 22 21 321 284 162 123 85 11 335 6 356 348 356 77 101 90 81 28 291 39 39 16 9 232 196 262 249 206 165 150 132 97 82 56 54 63 96 119 106 63 350 41 76 59 8 347 355 274 172 257 198 165 77 49 32 44 37 31 15 25 20 28 17 14 37 16 11 26 38 45
310 308 310 306 322 327 294 278 288 62 91 94 88 357 339 326 286 224 169 161 160 158 156 150 134 100 55 87 97 90 58 23 343 115 90 97 93 82 71 59 65 75 67 55 34 47 68 80 20 355 5 331 294 230 267 277 80 23 204 41 51 47 29 18 22 18 10 5 19 358 247 125 67 117
299 294 293 308 324 314 302 291 282 269 221 173 126 54 327 285 270 248 210 174 155 168 167 173 178 177 178 163 129 107 72 99 78 82 96 85 84 89 90 81 75 72 70 61 55 48 66 91 85 43 348 350 324 332 311 150 275 5 344 272 211 32 21 14 19 17 4 3 360 7 7 2 17 3
294 307 301 293 283 281 280 277 276 260 237 211 171 159 177 242 19 5 335 313 215 170 197 186 169 150 147 130 114 102 97 91 89 80 85 87 89 87 83 76 74 72 70 69 60 53 53 54 57 41 17 350 323 331 317 320 321 343 4 328 322 21 14 8 5 11 2 353 355 357 3 353 358 2
289 283 280 272 265 265 262 255 235 234 227 213 165 156 161 160 183 186 218 237 218 181 144 130 126 102 93 91 80 73 80 74 82 126 125 118 109 119 114 111 93 75 68 63 57 48 52 51 39 5 9 9 332 319 324 314 305 329 340 341 341 265 117 0 358 7 1 349 342 342 349 338 347 344
315 318 314 348 338 326 335 319 163 141 144 136 131 159 186 198 201 217 230 208 129 119 113 108 102 98 100 92 76 63 68 67 39 27 151 151 130 130 120 110 103 94 68 60 48 38 37 35 30 21 13 349 336 350 340 309 303 310 325 340 342 325 338 333 344 8 1 344 330 327 333 327 329 354
316 313 298 231 212 161 145 96 75 70 72 80 84 89 101 107 103 93 83 69 59 74 83 93 100 97 83 83 78 73 63 56 42 22 33 50 74 65 105 96 89 102 93 59 53 38 38 30 20 17 3 353 336 329 290 296 299 312 313 323 321 313 322 330 338 350 1 337 325 324 327 317 328 337
286 256 81 64 70 67 76 74 69 72 75 73 67 70 72 82 74 59 57 61 49 42 63 66 66 68 72 75 75 76 68 53 42 25 49 37 45 45 51 74 62 34 59 70 41 31 21 19 11 4 351 335 345 322 305 282 259 287 308 323 315 312 317 334 333 345 342 332 323 317 319 315 320 335
297 52 53 48 48 56 59 58 66 60 59 61 60 56 48 49 48 51 53 54 56 56 59 60 56 49 51 55 55 62 65 61 53 41 46 55 43 66 76 91 83 63 38 36 33 12 0 3 351 332 336 306 271 339 315 288 292 302 315 305 301 298 312 319 329 335 326 320 317 309 312 307 324 328
44 57 67 69 63 55 62 62 64 64 60 57 59 57 51 47 45 44 44 35 41 49 54 53 51 48 51 51 47 53 51 51 46 43 40 48 49 52 53 61 68 47 31 21 20 14 355 360 354 343 320 290 257 189 53 14 300 324 304 288 298 299 304 310 324 317 314 299 299 308 296 284 301 320
56 52 64 65 56 54 58 56 56 60 65 62 62 62 60 52 46 47 45 25 35 44 50 53 52 50 51 51 45 43 40 47 50 43 42 39 39 42 48 52 40 29 15 19 11 16 5 357 358 346 328 315 302 276 160 57 46 332 305 301 305 299 300 313 307 297 287 301 298 292 296 306 307 318
62 59 58 60 57 56 62 60 59 56 57 60 59 59 61 62 55 53 46 45 59 55 51 51 48 50 55 55 58 55 47 42 43 34 39 33 34 27 20 41 36 10 350 16 17 2 6 356 352 345 322 305 288 276 304 128 108 111 319 310 302 295 311 299 291 276 285 294 292 291 305 303 295 308
73 69 70 65 62 61 61 63 65 65 64 64 65 67 67 67 62 53 49 53 52 52 53 57 54 49 48 42 40 40 37 43 50 49 44 36 26 19 1 341 330 348 335 318 350 351 356 341 338 328 297 287 282 280 274 248 339 163 101 327 304 308 300 295 291 298 297 288 287 307 302 294 295 301
69 72 70 69 64 64 64 60 61 63 58 58 60 61 64 63 60 59 55 54 46 49 51 49 44 39 39 39 35 31 24 14 14 17 16 16 13 357 334 331 318 336 339 323 325 324 338 318 319 316 302 289 286 303 315 301 285 307 114 143 318 304 296 308 299 291 296 296 302 308 287 277 272 204
71 72 73 76 76 74 74 70 68 65 64 60 60 54 57 58 55 53 56 55 55 53 54 55 46 41 40 33 24 21 23 14 360 358 2 358 356 338 328 332 323 318 308 293 289 286 290 294 296 304 304 294 296 298 297 290 290 270 267 158 170 300 321 312 300 308 301 307 309 301 299 306 302 300
86 83 79 77 80 77 78 77 75 76 78 79 78 73 65 62 64 61 51 49 53 57 59 54 52 49 45 27 16 355 342 345 355 342 339 328 327 314 340 309 278 275 276 286 285 284 284 316 314 296 279 277 274 272 264 261 263 288 280 266 167 184 223 265 306 301 293 304 299 302 302 310 306 305
93 92 89 85 82 81 81 80 78 76 71 66 64 69 74 71 67 70 77 64 58 54 47 42 34 22 19 12 0 347 338 330 331 334 327 325 321 323 309 298 300 301 301 290 299 305 309 294 278 272 270 265 267 267 275 278 290 289 305 297 296 166 180 204 243 259 314 330 312 307 310 299 289 281
95 94 90 85 79 76 74 75 71 66 66 64 66 63 72 82 92 84 68 70 55 45 40 32 18 2 349 345 351 342 325 315 315 317 317 311 310 307 300 289 295 295 284 279 274 271 269 272 274 280 277 271 277 285 285 303 304 303 301 307 316 321 281 176 185 189 201 132 72 20 350 326 310 300
94 94 88 83 84 79 71 62 64 64 71 80 86 81 59 68 75 64 51 47 40 31 21 10 0 352 342 333 328 317 307 312 326 322 315 319 306 299 304 307 298 291 294 297 301 296 297 296 292 289 287 294 305 299 303 303 301 307 310 308 308 302 303 318 300 187 178 155 135 129 57 339 332 322
91 83 83 80 74 71 69 69 65 64 70 79 78 79 86 77 68 66 59 41 32 9 347 343 342 340 333 328 320 328 340 335 301 300 290 281 279 285 283 288 286 289 295 300 301 299 300 297 283 271 273 277 285 291 291 298 302 301 295 299 300 302 312 314 309 308 301 269 144 128 129 251 302 282